[[{"header":{"parameterUnit":"m.s-1","parameterCategory":1,"la1":30.2991,"la2":30.254,"lo1":-89.0895,"lo2":-89.0444,"dy":0.0017,"dx":0.0017,"nx":28,"ny":28,"refTime":"2024-04-19T09:00:00:Z","depth":0,"parameterNumber":2,"parameterNumberName":"U-component_of_WINDS"},"data":[0,0,0,0,0,0,0,0,0,0,0,0,0,0,0,0,0,0,0,0,0,0,0,0,0,0,0,0,0,0,0,0,0,0,0,0,0,0,0,0,0,0,0,0,0,0,0,0,0,0,0,0,0,0,0,0,0,0,-0.0921,-0.0919,0,-0.0801,-0.0799,-0.0798,-0.0741,-0.0741,-0.0741,-0.0741,-0.0618,-0.0615,-0.0611,0,0,0,0,0,0,0,0,0,0,0,0,0,-0.1102,-0.1099,-0.0921,-0.0919,-0.0918,-0.0801,-0.0799,-0.0798,-0.0741,-0.0741,-0.0741,-0.0741,-0.0619,-0.0615,-0.0611,0,0,0,0,0,0,0,0,0,0,0,0,0,-0.1007,-0.1098,-0.0921,-0.0875,-0.087,-0.0801,-0.0799,-0.0797,-0.0741,-0.0741,-0.0741,-0.0741,-0.062,-0.0615,-0.061,-0.0578,0,0,-0.0595,-0.0593,0,0,0,0,0,0,0,0,-0.1012,-0.1,-0.0884,-0.0878,-0.0872,-0.0786,-0.0818,-0.0724,-0.0741,-0.079,-0.0741,-0.0741,-0.0674,-0.0664,-0.0642,-0.0572,-0.0567,-0.0595,-0.0592,-0.059,-0.0588,0,0,0,0,0,0,0,-0.1019,-0.1005,-0.0873,-0.0882,-0.0875,-0.0861,-0.0848,-0.08,-0.0733,-0.0786,-0.0781,-0.0768,-0.0671,-0.0647,-0.0638,-0.0565,-0.0595,-0.059,-0.0587,-0.0585,-0.0463,-0.0463,0,0,0,0,0,0,-0.1033,-0.1011,-0.0877,-0.087,-0.0944,-0.0858,-0.0843,-0.0814,-0.0733,-0.0721,-0.0768,-0.0766,-0.0655,-0.0644,-0.0634,-0.059,-0.059,-0.0585,-0.0582,-0.0463,-0.0463,-0.0463,0,0,0,0,0,0,-0.1037,-0.1021,-0.0882,-0.0939,-0.092,-0.0855,-0.0822,-0.0811,-0.0787,-0.072,-0.0708,-0.0755,-0.0655,-0.0641,-0.0592,-0.0585,-0.0583,-0.0578,-0.0464,-0.0463,-0.0463,-0.0503,0,0,0,0,0,0,-0.1042,-0.1023,-0.101,-0.0939,-0.0917,-0.0843,-0.0822,-0.0809,-0.0778,-0.0774,-0.0705,-0.0693,-0.0654,-0.06,-0.0587,-0.0578,-0.0574,-0.0464,-0.0464,-0.0463,-0.0502,-0.0504,-0.0506,0,0,0,0,0,-0.1049,-0.1026,-0.101,-0.0994,-0.0899,-0.0842,-0.083,-0.0785,-0.0778,-0.0764,-0.0721,-0.0696,-0.0588,-0.0596,-0.0581,-0.057,-0.0464,-0.0464,-0.0463,-0.0501,-0.0504,-0.0506,0,0,0,0,0,0,-0.1097,-0.1016,-0.0997,-0.095,-0.0904,-0.0833,-0.0814,-0.0789,-0.0743,-0.0741,-0.0687,-0.0672,-0.0628,-0.0594,-0.0604,-0.0535,-0.0524,-0.052,-0.0558,-0.056,-0.0562,-0.0571,-0.057,0,0,0,0,0,-0.1103,-0.1063,-0.0994,-0.0959,-0.0937,-0.088,-0.0853,-0.0823,-0.0772,-0.0752,-0.0705,-0.0658,-0.0613,-0.0585,-0.054,-0.0498,-0.0482,-0.0483,-0.0485,-0.0487,-0.0484,-0.0459,-0.0459,-0.0461,-0.0461,-0.0461,0,0,-0.1113,-0.1064,-0.1042,-0.0968,-0.0928,-0.0889,-0.0864,-0.0822,-0.0792,-0.0746,-0.0697,-0.0662,-0.0604,-0.0559,-0.0537,-0.0529,-0.048,-0.0486,-0.0488,-0.0484,-0.0459,-0.0459,-0.0459,-0.0461,-0.0461,-0.0461,0,0,-0.1112,-0.1071,-0.1037,-0.0998,-0.0939,-0.0901,-0.0893,-0.0826,-0.0801,-0.0751,-0.0715,-0.0679,-0.0603,-0.0564,-0.0535,-0.052,-0.0494,-0.0507,-0.0516,-0.0493,-0.0493,-0.0493,-0.0487,-0.0486,-0.0505,-0.0505,-0.0505,0,-0.1132,-0.1071,-0.1023,-0.0984,-0.0953,-0.0909,-0.0876,-0.084,-0.0769,-0.0749,-0.0742,-0.0646,-0.0605,-0.055,-0.0546,-0.0524,-0.0513,-0.0514,-0.0497,-0.0496,-0.0495,-0.0489,-0.0487,-0.0507,-0.0506,-0.0506,-0.0506,0,-0.1099,-0.1057,-0.1037,-0.097,-0.0936,-0.09,-0.0848,-0.082,-0.0793,-0.0756,-0.0706,-0.0655,-0.0599,-0.0584,-0.0557,-0.0525,-0.0523,-0.0507,-0.0495,-0.0497,-0.0491,-0.0488,-0.0509,-0.0509,-0.0508,-0.0507,0,0,-0.1124,-0.1031,-0.1025,-0.0994,-0.0925,-0.0892,-0.0854,-0.08,-0.0777,-0.073,-0.0697,-0.0635,-0.062,-0.0586,-0.0554,-0.0534,-0.0526,-0.0521,-0.0518,-0.0523,-0.0488,-0.05,-0.0498,-0.0509,-0.0508,-0.0508,-0.0493,0,-0.1113,-0.1042,-0.0999,-0.0947,-0.0907,-0.0866,-0.0833,-0.0788,-0.0753,-0.0714,-0.0676,-0.0632,-0.0616,-0.0596,-0.0574,-0.0531,-0.0518,-0.0532,-0.0477,-0.0476,-0.0492,-0.0495,-0.0507,-0.0495,-0.049,-0.0489,-0.0489,0,-0.109,-0.1044,-0.0987,-0.0924,-0.0906,-0.0877,-0.0824,-0.0788,-0.0736,-0.0712,-0.0675,-0.0643,-0.0602,-0.0594,-0.0537,-0.0547,-0.0523,-0.0499,-0.0497,-0.049,-0.0482,-0.0487,-0.049,-0.0488,-0.0485,-0.0485,-0.0485,0,-0.1113,-0.1037,-0.0994,-0.0969,-0.0893,-0.0874,-0.0842,-0.079,-0.0761,-0.0715,-0.0695,-0.0645,-0.0617,-0.0579,-0.0535,-0.0533,-0.0482,-0.047,-0.0461,-0.0462,-0.0451,-0.0452,-0.045,-0.0436,-0.0436,-0.0436,-0.0436,0,-0.1105,-0.1072,-0.1003,-0.0977,-0.0939,-0.089,-0.0854,-0.0818,-0.0773,-0.0738,-0.07,-0.0669,-0.0612,-0.0574,-0.0539,-0.0497,-0.0485,-0.0464,-0.0455,-0.0467,-0.047,-0.045,-0.0449,-0.0436,-0.0436,-0.0436,-0.0436,0,-0.1124,-0.1077,-0.1027,-0.096,-0.0943,-0.0918,-0.086,-0.0833,-0.0796,-0.0754,-0.0741,-0.0683,-0.0636,-0.0589,-0.0525,-0.0502,-0.0461,-0.0448,-0.0478,-0.0473,-0.0466,-0.0467,-0.045,-0.0445,-0.0436,-0.0436,-0.0436,0,-0.1122,-0.1096,-0.1026,-0.1,-0.0969,-0.0928,-0.0898,-0.0849,-0.082,-0.0759,-0.0739,-0.069,-0.0647,-0.0575,-0.0527,-0.0479,-0.0465,-0.0462,-0.0457,-0.047,-0.0464,-0.0466,-0.0463,-0.0464,-0.0464,-0.0465,-0.0465,0,-0.1122,-0.1101,-0.1058,-0.1008,-0.0973,-0.0931,-0.0888,-0.0869,-0.0812,-0.0781,-0.0732,-0.07,-0.0636,-0.0587,-0.0533,-0.05,-0.0473,-0.0467,-0.0462,-0.0474,-0.0492,-0.0482,-0.0483,-0.0467,-0.0467,-0.0467,-0.0467,-0.0467,-0.113,-0.1105,-0.1053,-0.1007,-0.0969,-0.093,-0.0901,-0.0861,-0.082,-0.0764,-0.0738,-0.069,-0.0639,-0.0564,-0.0532,-0.0494,-0.0486,-0.0479,-0.0477,-0.0476,-0.0479,-0.0499,-0.0484,-0.0483,-0.0483,-0.0483,-0.0483,0,-0.1129,-0.1093,-0.1052,-0.0992,-0.0957,-0.0935,-0.0886,-0.0858,-0.0816,-0.0771,-0.073,-0.0675,-0.0628,-0.0578,-0.0528,-0.0507,-0.0493,-0.0495,-0.0496,-0.0489,-0.0489,-0.0498,-0.0507,-0.0507,-0.0507,-0.0507,-0.0507,-0.0507,-0.1124,-0.108,-0.1052,-0.099,-0.0954,-0.0907,-0.0881,-0.0844,-0.0808,-0.0749,-0.071,-0.0677,-0.063,-0.0576,-0.0532,-0.0518,-0.0502,-0.0507,-0.049,-0.0491,-0.0489,-0.0487,-0.0495,-0.0504,-0.0504,-0.0493,-0.0493,-0.0493]},{"header":{"parameterUnit":"m.s-1","parameterCategory":1,"la1":30.2991,"la2":30.254,"lo1":-89.0895,"lo2":-89.0444,"dy":0.0017,"dx":0.0017,"nx":28,"ny":28,"refTime":"2024-04-19T09:00:00:Z","depth":0,"parameterNumber":3,"parameterNumberName":"V-component_of_WINDS"},"data":[0,0,0,0,0,0,0,0,0,0,0,0,0,0,0,0,0,0,0,0,0,0,0,0,0,0,0,0,0,0,0,0,0,0,0,0,0,0,0,0,0,0,0,0,0,0,0,0,0,0,0,0,0,0,0,0,0,0,3.1859,3.1859,0,3.1834,3.1834,3.1833,3.1807,3.1806,3.1806,3.1806,3.1777,3.1777,3.1777,0,0,0,0,0,0,0,0,0,0,0,0,0,3.1883,3.1883,3.1859,3.1859,3.1859,3.1834,3.1834,3.1833,3.1807,3.1806,3.1806,3.1806,3.1778,3.1777,3.1777,0,0,0,0,0,0,0,0,0,0,0,0,0,3.1867,3.1883,3.1859,3.1843,3.1841,3.1834,3.1834,3.1833,3.1807,3.1806,3.1806,3.1805,3.1778,3.1777,3.1777,3.1783,0,0,3.1775,3.1774,0,0,0,0,0,0,0,0,3.1868,3.1866,3.1845,3.1844,3.1842,3.1823,3.1832,3.1816,3.1807,3.182,3.1806,3.1805,3.1793,3.1791,3.1787,3.1782,3.1781,3.1775,3.1774,3.1774,3.1774,0,0,0,0,0,0,0,3.1869,3.1867,3.1849,3.1845,3.1843,3.1836,3.1833,3.1829,3.181,3.1819,3.1817,3.1814,3.1792,3.1788,3.1786,3.1781,3.1775,3.1774,3.1774,3.1773,3.178,3.1781,0,0,0,0,0,0,3.1873,3.1868,3.185,3.1848,3.1854,3.1836,3.1832,3.1829,3.181,3.1806,3.1815,3.1813,3.1789,3.1787,3.1785,3.1793,3.1774,3.1773,3.1773,3.178,3.178,3.1781,0,0,0,0,0,0,3.1874,3.1872,3.1851,3.1858,3.1855,3.1836,3.1833,3.1829,3.1826,3.1807,3.1803,3.1814,3.1789,3.1786,3.1784,3.1791,3.1773,3.1772,3.1779,3.178,3.1781,3.1807,0,0,0,0,0,0,3.1874,3.1872,3.1875,3.1858,3.1854,3.1851,3.1833,3.1829,3.1825,3.1822,3.1805,3.1802,3.1788,3.1786,3.1784,3.179,3.1772,3.1778,3.178,3.1781,3.1806,3.1809,3.1812,0,0,0,0,0,3.1875,3.1883,3.1875,3.1873,3.1858,3.1852,3.1849,3.1834,3.1825,3.1828,3.1816,3.1803,3.1791,3.1786,3.1783,3.179,3.1778,3.1779,3.178,3.1804,3.1808,3.1812,0,0,0,0,0,0,3.19,3.188,3.1871,3.1874,3.1865,3.1847,3.185,3.1839,3.1831,3.1829,3.181,3.1806,3.1807,3.1798,3.1792,3.1796,3.1783,3.1783,3.1801,3.1805,3.1808,3.181,3.1771,0,0,0,0,0,3.1906,3.1903,3.1885,3.1889,3.1885,3.1868,3.1865,3.1854,3.1844,3.1839,3.1827,3.1817,3.1811,3.1807,3.1801,3.1804,3.18,3.1807,3.181,3.1813,3.1814,3.1816,3.1819,3.1785,3.1785,3.1785,0,0,3.1917,3.1906,3.1905,3.1894,3.1885,3.1883,3.1865,3.1863,3.1861,3.1839,3.1837,3.1828,3.1815,3.1816,3.1816,3.1809,3.1822,3.1815,3.1817,3.1816,3.1817,3.1821,3.1823,3.1786,3.1786,3.1786,0,0,3.1937,3.1928,3.1931,3.1923,3.1911,3.19,3.1901,3.1885,3.1878,3.1876,3.186,3.1857,3.1847,3.1839,3.1833,3.1851,3.1839,3.1849,3.1865,3.1867,3.1869,3.1872,3.1878,3.1881,3.185,3.185,3.185,0,3.1953,3.1949,3.1933,3.1932,3.1928,3.1909,3.1911,3.1904,3.189,3.1887,3.188,3.1868,3.1857,3.1857,3.1861,3.1857,3.1857,3.1851,3.187,3.1872,3.1874,3.1881,3.1883,3.1852,3.1852,3.1851,3.1851,0,3.1969,3.1966,3.197,3.1958,3.1954,3.1954,3.1938,3.1936,3.1926,3.1915,3.1913,3.1901,3.1892,3.1891,3.188,3.1889,3.1885,3.1874,3.1861,3.1879,3.1885,3.1887,3.1854,3.1853,3.1853,3.1853,0,0,3.2003,3.1984,3.1985,3.198,3.1966,3.1963,3.1963,3.1955,3.1953,3.1944,3.1944,3.1936,3.1927,3.192,3.1909,3.191,3.1926,3.1899,3.1899,3.1905,3.1935,3.1944,3.1947,3.1918,3.1918,3.1918,3.1936,0,3.2021,3.202,3.2006,3.2009,3.2007,3.1989,3.1989,3.198,3.1971,3.1967,3.1956,3.1951,3.1938,3.1935,3.1936,3.1924,3.1932,3.1922,3.1917,3.1917,3.1921,3.1949,3.1958,3.1976,3.1938,3.1939,3.1939,0,3.2041,3.2035,3.2038,3.2024,3.2023,3.2023,3.2015,3.2012,3.2001,3.1994,3.1988,3.1975,3.1974,3.1961,3.1959,3.1953,3.195,3.1943,3.1944,3.1943,3.1929,3.1949,3.1981,3.1984,3.1942,3.1942,3.1942,0,3.2067,3.2059,3.206,3.2056,3.204,3.204,3.2033,3.2022,3.2019,3.2012,3.2009,3.2001,3.1997,3.1991,3.1977,3.1969,3.1976,3.1962,3.197,3.1971,3.1973,3.1973,3.2004,3.197,3.197,3.197,3.197,0,3.2088,3.2091,3.2071,3.2072,3.2074,3.2058,3.2061,3.2052,3.2043,3.2041,3.2025,3.2024,3.2004,3.2001,3.1989,3.199,3.1988,3.1982,3.1979,3.1983,3.1984,3.1981,3.198,3.1971,3.1971,3.1971,3.1971,0,3.2117,3.2104,3.2104,3.2089,3.2085,3.2088,3.2075,3.2074,3.2064,3.2063,3.2061,3.2045,3.204,3.2025,3.2016,3.2008,3.2012,3.2006,3.2016,3.2014,3.2023,3.2023,3.2054,3.2057,3.2021,3.2021,3.2022,0,3.2131,3.2133,3.2119,3.2117,3.2111,3.2108,3.2105,3.2089,3.2086,3.2075,3.2076,3.207,3.2065,3.2058,3.2045,3.2038,3.2032,3.2043,3.2031,3.2036,3.2033,3.2033,3.2033,3.2046,3.2047,3.2047,3.2047,0,3.2159,3.2153,3.2148,3.2142,3.2139,3.2133,3.2126,3.2126,3.2108,3.2105,3.2101,3.2097,3.2088,3.2083,3.2074,3.2066,3.2054,3.2052,3.2053,3.2058,3.2064,3.2061,3.2024,3.2051,3.205,3.205,3.205,3.205,3.2181,3.2182,3.2173,3.2169,3.2162,3.2156,3.2156,3.2146,3.2142,3.2135,3.2125,3.2122,3.2112,3.2099,3.2093,3.209,3.2083,3.2085,3.2085,3.2086,3.2089,3.2064,3.2088,3.2088,3.2088,3.2087,3.2087,0,3.2208,3.2201,3.2198,3.219,3.2187,3.2176,3.2168,3.2166,3.2164,3.2156,3.2151,3.2146,3.2141,3.2128,3.2121,3.2121,3.2115,3.212,3.212,3.2119,3.2095,3.2095,3.2125,3.2125,3.2125,3.2125,3.2125,3.2125,3.2222,3.2223,3.2216,3.2214,3.2207,3.2204,3.2201,3.2195,3.2189,3.2184,3.218,3.2172,3.2162,3.2155,3.215,3.2146,3.2144,3.2151,3.2145,3.2124,3.212,3.2117,3.2116,3.2151,3.2151,3.2169,3.2169,3.217]}]]